Date String (YYYY-MM-DD hh:mm:ss) UTC,Instrument flags,Ambient pressure (hPa),Sample flow (lpm),Bypass flow (lpm),Sample temperature (°C),Ambient temperature (°C),ASC tube jacket temperature (°C),LED temperature (°C),Box temperature (°C),Sample RH (%),Span deviation,Mass concentration (μg/m³),Mass concentration (μg/m³),Mass concentration (μg/m³)
DateTimeUTC,F1_M11,P_M11,Q1_M11,Q2_M11,T1_M11,T2_M11,T3_M11,T4_M11,T5_M11,U1_M11,ZSPAN_M11,X0_M11,X2_M11,X1_M11
2022-08-18 18:00:00,,0831.2,5.00,0.00,29.3,28.1,00.0,38.0,31.3,22.9,0002.3,0014.64,0007.18,0006.48
2022-08-18 18:01:00,,0831.2,5.00,0.00,29.4,28.3,00.0,38.0,31.3,22.9,0001.5,0015.09,0007.18,0006.48
2022-08-18 18:02:00,,0831.2,5.00,0.00,29.4,28.0,00.0,38.0,31.3,22.3,0000.8,0015.30,0007.19,0006.47
2022-08-18 18:03:00,,0831.3,4.99,0.00,29.3,27.4,00.0,38.0,31.0,22.2,0000.0,0014.94,0007.22,0006.49
2022-08-18 18:04:00,,0831.3,5.01,0.00,29.3,27.1,00.0,37.9,31.0,21.8,0003.2,0016.07,0007.25,0006.49
2022-08-18 18:05:00,,0831.3,4.99,0.00,29.2,27.1,00.0,37.9,31.0,22.2,0001.0,0016.12,0007.26,0006.49
2022-08-18 18:06:00,,0831.2,5.01,0.00,29.2,27.3,00.0,37.9,30.9,23.0,0002.2,0015.86,0007.25,0006.47
2022-08-18 18:07:00,,0831.2,5.00,0.00,29.2,27.5,00.0,37.9,31.0,23.3,0000.0,0015.60,0007.25,0006.45
2022-08-18 18:08:00,,0831.2,5.00,0.00,29.2,27.6,00.0,38.0,31.0,23.7,0000.0,0015.35,0007.26,0006.44
2022-08-18 18:09:00,,0831.2,5.00,0.00,29.2,27.8,00.0,38.0,31.1,23.8,0000.0,0015.46,0007.22,0006.43
2022-08-18 18:10:00,,0831.2,5.00,0.00,29.3,28.0,00.0,38.0,31.2,23.2,0000.0,0016.46,0007.20,0006.42
2022-08-18 18:11:00,,0831.2,5.00,0.00,29.3,28.2,00.0,38.0,31.3,23.1,0000.0,0016.24,0007.20,0006.42
2022-08-18 18:12:00,,0831.2,5.00,0.00,29.3,28.0,00.0,38.0,31.3,23.1,0000.0,0016.76,0007.21,0006.40
2022-08-18 18:13:00,,0831.2,4.99,0.00,29.3,27.4,00.0,38.0,31.1,23.0,0000.0,0017.02,0007.23,0006.40
2022-08-18 18:14:00,,0831.2,5.01,0.00,29.2,27.1,00.0,37.9,31.0,23.6,0000.0,0016.88,0007.24,0006.40
2022-08-18 18:15:00,,0831.2,4.99,0.00,29.2,27.2,00.0,37.9,31.0,23.4,0000.0,0016.29,0007.22,0006.39
2022-08-18 18:16:00,,0831.2,5.01,0.00,29.1,27.3,00.0,37.9,30.9,23.2,0000.0,0015.50,0007.26,0006.42
2022-08-18 18:17:00,,0831.2,5.01,0.00,29.1,27.5,00.0,37.9,31.0,23.0,0000.0,0015.71,0007.35,0006.48
2022-08-18 18:18:00,,0831.2,5.00,0.00,29.2,27.6,00.0,37.9,31.0,22.6,0000.0,0016.19,0007.41,0006.55
2022-08-18 18:19:00,,0831.2,5.01,0.00,29.2,27.8,00.0,37.9,31.1,23.1,0000.0,0016.21,0007.45,0006.61
2022-08-18 18:20:00,,0831.2,5.01,0.00,29.2,28.0,00.0,37.9,31.2,22.7,0000.9,0016.01,0007.49,0006.66
2022-08-18 18:21:00,,0831.2,4.99,0.00,29.3,28.1,00.0,38.0,31.3,23.5,0000.8,0015.27,0007.51,0006.70
2022-08-18 18:22:00,,0831.2,5.00,0.00,29.3,28.2,00.0,38.0,31.3,23.7,0000.0,0016.69,0007.53,0006.73
2022-08-18 18:23:00,,0831.2,5.00,0.00,29.3,27.9,00.0,38.0,31.2,22.6,0002.0,0016.45,0007.54,0006.78
2022-08-18 18:24:00,,0831.2,5.01,0.00,29.3,27.3,00.0,37.9,31.0,22.6,0002.7,0016.55,0007.54,0006.82
2022-08-18 18:25:00,,0831.2,5.00,0.00,29.2,27.1,00.0,37.9,31.0,23.5,0003.4,0018.13,0007.55,0006.86
2022-08-18 18:26:00,,0831.2,5.00,0.00,29.2,27.2,00.0,37.9,30.9,22.8,0003.3,0018.65,0007.63,0006.91
2022-08-18 18:27:00,,0831.2,4.99,0.00,29.1,27.3,00.0,37.9,30.9,22.7,0003.4,0018.61,0007.64,0006.93
2022-08-18 18:28:00,,0831.2,5.01,0.00,29.1,27.5,00.0,37.9,30.9,23.1,0003.3,0018.96,0007.60,0006.93
2022-08-18 18:29:00,,0831.2,5.00,0.00,29.2,27.7,00.0,37.9,31.0,22.8,0002.9,0018.58,0007.57,0006.91
2022-08-18 18:30:00,,0831.1,5.00,0.00,29.2,27.9,00.0,37.9,31.1,22.9,0002.5,0018.91,0007.56,0006.90
2022-08-18 18:31:00,,0831.2,5.00,0.00,29.3,28.0,00.0,38.0,31.2,23.1,0002.8,0018.88,0007.58,0006.91
2022-08-18 18:32:00,,0831.1,4.99,0.00,29.3,28.2,00.0,38.0,31.3,22.4,0003.1,0018.70,0007.59,0006.93
2022-08-18 18:33:00,,0831.1,4.99,0.00,29.3,28.2,00.0,38.0,31.3,22.6,0003.0,0017.48,0007.63,0006.94
2022-08-18 18:34:00,,0831.0,5.00,0.00,29.3,27.7,00.0,37.9,31.1,23.6,0002.9,0017.11,0007.65,0006.95
2022-08-18 18:35:00,,0831.1,5.00,0.00,29.3,27.2,00.0,37.9,31.0,23.0,0002.8,0016.50,0007.68,0006.96
2022-08-18 18:36:00,,0831.0,5.01,0.00,29.2,27.1,00.0,37.9,31.0,22.9,0002.9,0015.16,0007.71,0006.96
2022-08-18 18:37:00,,0831.0,5.00,0.00,29.2,27.2,00.0,37.9,30.9,22.6,0003.2,0014.62,0007.68,0006.96
2022-08-18 18:38:00,,0831.0,5.00,0.00,29.1,27.4,00.0,37.9,30.9,22.5,0003.1,0015.14,0007.68,0006.96
2022-08-18 18:39:00,,0831.1,5.01,0.00,29.2,27.6,00.0,37.9,31.0,23.1,0003.2,0014.88,0007.71,0006.97
2022-08-18 18:40:00,,0831.0,5.00,0.00,29.2,27.8,00.0,37.9,31.1,23.3,0003.3,0014.74,0007.71,0006.98
2022-08-18 18:41:00,,0831.0,5.00,0.00,29.2,27.9,00.0,37.9,31.1,23.1,0003.4,0015.64,0007.73,0006.97
2022-08-18 18:42:00,,0831.1,5.01,0.00,29.3,28.1,00.0,38.0,31.2,22.4,0003.3,0017.07,0007.76,0006.97
2022-08-18 18:43:00,,0831.0,5.00,0.00,29.3,28.2,00.0,38.0,31.3,22.5,0003.3,0017.74,0007.82,0006.96
2022-08-18 18:44:00,,0831.0,4.99,0.00,29.4,28.3,00.0,38.0,31.3,22.1,0003.4,0017.77,0007.80,0006.96
2022-08-18 18:45:00,,0831.0,5.01,0.00,29.4,27.9,00.0,37.9,31.2,21.8,0003.7,0017.93,0007.79,0006.95
2022-08-18 18:46:00,,0831.0,5.00,0.00,29.3,27.3,00.0,37.9,31.1,23.3,0003.8,0017.59,0007.77,0006.94
2022-08-18 18:47:00,,0831.0,5.00,0.00,29.2,27.2,00.0,37.9,31.0,22.8,0002.7,0017.74,0007.77,0006.93
2022-08-18 18:48:00,,0831.0,4.99,0.00,29.2,27.2,00.0,37.9,30.9,23.0,0000.9,0018.17,0007.78,0006.92
2022-08-18 18:49:00,,0831.0,4.99,0.00,29.2,27.4,00.0,37.9,30.9,24.5,0000.0,0017.78,0007.76,0006.89
2022-08-18 18:50:00,,0831.0,5.01,0.00,29.2,27.6,00.0,37.9,31.0,24.3,0000.0,0017.91,0007.75,0006.87
2022-08-18 18:51:00,,0831.0,5.01,0.00,29.2,27.7,00.0,37.9,31.0,22.4,0000.0,0018.97,0007.74,0006.85
2022-08-18 18:52:00,,0831.0,5.00,0.00,29.2,27.9,00.0,37.9,31.2,21.7,0000.0,0018.67,0007.75,0006.84
2022-08-18 18:53:00,,0831.0,4.99,0.00,29.3,28.1,00.0,38.0,31.2,21.6,0000.0,0017.42,0007.70,0006.81
2022-08-18 18:54:00,,0831.0,5.01,0.00,29.3,28.2,00.0,38.0,31.3,21.6,0000.0,0017.41,0007.64,0006.79
2022-08-18 18:55:00,,0831.0,5.01,0.00,29.4,28.2,00.0,38.0,31.3,22.1,0000.0,0016.99,0007.62,0006.77
2022-08-18 18:56:00,,0830.9,5.00,0.00,29.3,27.6,00.0,38.0,31.1,21.5,0000.0,0015.99,0007.60,0006.75
2022-08-18 18:57:00,,0830.9,5.00,0.00,29.3,27.2,00.0,37.9,31.0,21.8,0000.0,0015.74,0007.61,0006.74
2022-08-18 18:58:00,,0830.9,5.00,0.00,29.2,27.1,00.0,37.9,31.0,22.1,0000.0,0015.77,0007.61,0006.74
2022-08-18 18:59:00,,0830.9,5.00,0.00,29.2,27.3,00.0,37.9,30.9,21.8,0000.0,0015.34,0007.55,0006.72
